Location: Ago
(8.4667°N, 4.4833°E)
Time: 23:13:56
(UTC+00:00)

ARIANE 5 R/B - Pass Details

Date: 18 September 2020
Orbit: 247 x 31079 km, 5.9° (Epoch: 19 October)

Event Time Altitude Azimuth Distance (km) Brightness Sun altitude
Rises 19:24:12 0° 265° (W) 7,224 8.7 -26.5°
Reaches altitude 10° 19:31:46 10° 263° (W) 3,730 6.9 -28.4°
Enters shadow 19:37:18 37° 241° (WSW) 971 3.3 -29.7°
